ONEWEB-0083, 45435

Orbit data source: Space-Track

ONEWEB-0083, 45435 is a payload satellite owned by One Web (UK) in LEO that was launched on Sat, 21 Mar 2020 UTC via a SOYUZ-2-1B launch vehicle from the Tyuratam Missile And Space Complex (TTMTR). Payload-class satellites include a variety of spacecraft equipped with specific instruments for various scientific and technological missions. These include communications satellites like Starlink; space stations such as the ISS; scientific satellites like the Hubble; Earth observation satellites from companies like Planet Labs, Umbra, and HawkEye 360; GPS; miniature CubeSats for education and research; and military/defense satellites.

Loading next visibility...
Identifier
45435, 2020-020M
Orbit
LEO
Country
Flag of UKUK
Related business
Manufacturer
One Web
Mission
Operational Commercial Communications
Bus & Motor
ARROW, Unknown motor
Mass
148 kg wet, ~140 kg dry
Launch date (UTC)
2020-03-21 (6 years ago)
Launch vehicle
SOYUZ-2-1B
Launch site
Tyuratam Missile And Space Complex (TTMTR)
Object type
Payload
Rocket body
Debris
Shape & HBR
Trap Box + 2 Pan, 6.7 m
Radar Cross Section
3.464 m², Large (>1 m²)

Expand to show TLE details & history
Last TLE update: 12 hours ago

TLE from 12 hours ago
0 ONEWEB-0083
1 45435U 20020M   26035.52850186 -.00000302  00000-0 -88693-3 0  9990
2 45435  87.8823  47.4494 0001778  92.7055 267.4276 13.11419258285286
Epoch: 2026-02-04T12:41Z
TLE epoch observation values (Epoch: 2026-02-04T12:41:02.560Z)
Latitude
-0.00008°
Longitude
82.49494°
Altitude
1,220.624 km
Speed
7.244 km/s
True Right ascension
03h 09m 47s
True Declination
0° 00' 00"
Sunlit
Object was in daylight at epoch
Visualization orbit readout
Latitude
Unknown
Longitude
Unknown
Altitude
Unknown
Speed
Unknown
Apparent Right ascension
Unknown
Apparent Declination
Unknown
Sunlit
N/A
Visualization observer readout
Local Sidereal Time
03:05:38
Azimuth
Unknown
Elevation
Unknown
Doppler factor
Unknown
Orbital elements
Apogee altitude
1,216.142 km
Perigee altitude
1,213.442 km
Semi-major axis
7,592.929 km
Eccentricity
0.00018
Inclination
87.8823°
RAAN
47.4494°
Arg. of periapsis
92.7055°
True anomaly
267.40725°
Mean anomaly
267.4276°
Eccentric anomaly
267.41742°
Mean motion
3.28042 °/min
Orbital period
109.74 mins
BSTAR
-0.00088693
Loading maneuver chart data...
Computing Atmospheric mass density...
Loading historical data...
Loading historical data...
Loading historical data...
Loading historical data...
Loading historical data...
Loading historical data...
Loading historical data...

Documentation

Showing up to 5 results
|